Time,TemperatureF,DewpointF,PressureIn,WindDirection,WindDirectionDegrees,WindSpeedMPH,WindSpeedGustMPH,Humidity,HourlyPrecipIn,Conditions,Clouds,dailyrainin,SoftwareType,DateUTC
2013-07-17 00:01:00,80.0,74.0,26.41,ENE,74,22.0,24.0,83,0.00,,,0.01,,2013-07-17 04:01:00,
2013-07-17 00:43:00,79.0,74.0,26.41,ESE,119,24.0,34.0,86,0.00,,,0.01,,2013-07-17 04:43:00,
2013-07-17 00:53:00,77.0,73.0,26.41,ESE,123,14.0,26.0,87,0.00,,,0.01,,2013-07-17 04:53:00,
2013-07-17 01:43:00,75.0,73.0,26.41,NE,47,14.0,19.0,93,0.00,,,0.01,,2013-07-17 05:43:00,
2013-07-17 01:52:00,75.0,73.0,26.41,SE,126,17.0,22.0,94,0.00,,,0.01,,2013-07-17 05:52:00,
2013-07-17 02:11:00,75.0,73.0,26.41,ESE,105,23.0,28.0,95,0.00,,,0.01,,2013-07-17 06:11:00,
2013-07-17 02:22:00,75.0,73.0,26.41,ESE,122,21.0,26.0,95,0.00,,,0.01,,2013-07-17 06:22:00,
2013-07-17 02:32:00,75.0,74.0,26.41,East,97,27.0,29.0,96,0.00,,,0.01,,2013-07-17 06:32:00,
2013-07-17 02:43:00,75.0,73.0,26.41,East,87,29.0,33.0,95,0.00,,,0.01,,2013-07-17 06:43:00,
2013-07-17 02:52:00,75.0,74.0,26.41,East,86,25.0,31.0,96,0.00,,,0.01,,2013-07-17 06:52:00,
2013-07-17 03:01:00,75.0,74.0,26.41,East,92,22.0,27.0,96,0.00,,,0.01,,2013-07-17 07:01:00,
2013-07-17 03:11:00,75.0,74.0,26.41,East,97,21.0,24.0,96,0.00,,,0.01,,2013-07-17 07:11:00,
2013-07-17 03:32:00,74.0,73.0,26.41,East,100,16.0,20.0,96,0.00,,,0.01,,2013-07-17 07:32:00,
2013-07-17 03:42:00,75.0,74.0,26.41,East,83,14.0,18.0,96,0.01,,,0.02,,2013-07-17 07:42:00,
2013-07-17 03:52:00,75.0,74.0,26.41,East,83,15.0,20.0,96,0.01,,,0.02,,2013-07-17 07:52:00,
2013-07-17 04:01:00,75.0,74.0,26.41,ENE,63,17.0,19.0,96,0.01,,,0.02,,2013-07-17 08:01:00,
2013-07-17 04:11:00,74.0,73.0,26.41,East,83,13.0,20.0,96,0.01,,,0.02,,2013-07-17 08:11:00,
2013-07-17 04:22:00,74.0,73.0,26.41,East,81,15.0,18.0,96,0.01,,,0.02,,2013-07-17 08:22:00,
2013-07-17 04:43:00,75.0,74.0,26.41,ENE,64,14.0,19.0,96,0.00,,,0.02,,2013-07-17 08:43:00,
2013-07-17 04:53:00,75.0,74.0,26.41,ENE,68,12.0,15.0,96,0.00,,,0.02,,2013-07-17 08:53:00,
2013-07-17 05:02:00,76.0,75.0,26.41,ENE,73,19.0,25.0,96,0.00,,,0.02,,2013-07-17 09:02:00,
2013-07-17 05:12:00,75.0,74.0,26.41,ENE,73,29.0,33.0,96,0.00,,,0.02,,2013-07-17 09:12:00,
2013-07-17 05:22:00,74.0,73.0,26.41,ENE,72,27.0,32.0,96,0.00,,,0.02,,2013-07-17 09:22:00,
2013-07-17 05:32:00,74.0,73.0,26.41,ENE,66,21.0,26.0,96,0.00,,,0.02,,2013-07-17 09:32:00,
2013-07-17 05:43:00,74.0,73.0,26.41,NE,48,16.0,19.0,96,0.00,,,0.02,,2013-07-17 09:43:00,
2013-07-17 05:52:00,74.0,73.0,26.41,NE,34,11.0,18.0,96,0.00,,,0.02,,2013-07-17 09:52:00,
2013-07-17 06:01:00,74.0,73.0,26.41,NNE,24,7.0,13.0,96,0.00,,,0.02,,2013-07-17 10:01:00,
2013-07-17 06:11:00,74.0,73.0,26.41,North,4,4.0,10.0,96,0.00,,,0.02,,2013-07-17 10:11:00,
2013-07-17 06:22:00,74.0,73.0,26.41,North,1,3.0,7.0,96,0.00,,,0.02,,2013-07-17 10:22:00,
2013-07-17 06:32:00,74.0,73.0,26.41,North,352,1.0,9.0,96,0.00,,,0.02,,2013-07-17 10:32:00,
2013-07-17 06:43:00,74.0,72.0,26.41,North,5,4.0,6.0,94,0.00,,,0.02,,2013-07-17 10:43:00,
2013-07-17 06:52:00,75.0,74.0,26.41,North,356,3.0,12.0,97,0.00,,,0.02,,2013-07-17 10:52:00,
2013-07-17 07:02:00,75.0,74.0,26.41,North,356,2.0,13.0,97,0.00,,,0.02,,2013-07-17 11:02:00,
2013-07-17 07:11:00,75.0,74.0,26.41,North,1,4.0,13.0,96,0.00,,,0.02,,2013-07-17 11:11:00,
2013-07-17 07:22:00,75.0,74.0,26.41,NNW,346,4.0,9.0,96,0.00,,,0.02,,2013-07-17 11:22:00,
2013-07-17 07:32:00,75.0,74.0,26.41,NNE,15,4.0,10.0,97,0.00,,,0.02,,2013-07-17 11:32:00,
2013-07-17 07:52:00,75.0,74.0,26.41,North,356,6.0,10.0,97,0.00,,,0.02,,2013-07-17 11:52:00,
2013-07-17 08:01:00,75.0,74.0,26.41,NNE,17,3.0,13.0,97,0.00,,,0.02,,2013-07-17 12:01:00,
2013-07-17 08:12:00,75.0,74.0,26.41,NNE,12,8.0,15.0,97,0.00,,,0.02,,2013-07-17 12:12:00,
2013-07-17 08:22:00,75.0,74.0,26.41,NNE,25,11.0,16.0,97,0.00,,,0.02,,2013-07-17 12:22:00,
2013-07-17 08:32:00,75.0,74.0,26.41,NNE,18,11.0,16.0,97,0.00,,,0.02,,2013-07-17 12:32:00,
2013-07-17 08:42:00,75.0,74.0,26.41,NNE,19,10.0,13.0,96,0.00,,,0.02,,2013-07-17 12:42:00,
2013-07-17 08:53:00,75.0,74.0,26.41,NNE,23,8.0,12.0,96,0.00,,,0.02,,2013-07-17 12:53:00,
2013-07-17 09:22:00,75.0,74.0,26.41,NNE,19,6.0,18.0,96,0.00,,,0.02,,2013-07-17 13:22:00,
2013-07-17 09:43:00,75.0,74.0,26.41,North,5,7.0,13.0,96,0.00,,,0.02,,2013-07-17 13:43:00,
2013-07-17 09:52:00,75.0,74.0,26.41,NNW,346,5.0,11.0,96,0.00,,,0.02,,2013-07-17 13:52:00,
2013-07-17 10:02:00,76.0,74.0,26.41,North,4,7.0,15.0,95,0.00,,,0.02,,2013-07-17 14:02:00,
2013-07-17 10:43:00,77.0,-99.9,26.41,NNE,29,11.0,18.0,-999,0.00,,,0.02,,2013-07-17 14:43:00,
2013-07-17 10:52:00,77.0,-99.9,26.41,NNE,31,11.0,19.0,-999,0.00,,,0.02,,2013-07-17 14:52:00,
2013-07-17 11:02:00,77.0,-99.9,26.41,North,6,8.0,14.0,-999,0.00,,,0.02,,2013-07-17 15:02:00,
2013-07-17 11:12:00,77.0,-99.9,26.41,NNE,25,12.0,17.0,-999,0.00,,,0.02,,2013-07-17 15:12:00,
2013-07-17 11:22:00,77.0,-99.9,26.41,NNE,29,10.0,17.0,-999,0.00,,,0.02,,2013-07-17 15:22:00,
2013-07-17 11:32:00,77.0,-99.9,26.41,NNE,32,11.0,17.0,-999,0.00,,,0.02,,2013-07-17 15:32:00,
2013-07-17 11:43:00,77.0,-99.9,26.41,NNE,19,13.0,17.0,-999,0.00,,,0.02,,2013-07-17 15:43:00,
2013-07-17 11:52:00,78.0,-99.9,26.41,NE,56,15.0,19.0,-999,0.00,,,0.02,,2013-07-17 15:52:00,
2013-07-17 12:11:00,79.0,-99.9,26.41,NE,48,14.0,17.0,-999,0.00,,,0.02,,2013-07-17 16:11:00,
2013-07-17 12:22:00,79.0,-99.9,26.41,NE,54,12.0,17.0,-999,0.00,,,0.02,,2013-07-17 16:22:00,
2013-07-17 12:33:00,79.0,-99.9,26.41,NE,54,9.0,15.0,-999,0.00,,,0.02,,2013-07-17 16:33:00,
2013-07-17 12:43:00,79.0,-99.9,26.41,NE,39,10.0,14.0,-999,0.00,,,0.02,,2013-07-17 16:43:00,
2013-07-17 12:52:00,79.0,79.0,26.41,NE,34,8.0,13.0,100,0.00,,,0.02,,2013-07-17 16:52:00,
2013-07-17 13:11:00,79.0,76.0,26.41,ENE,66,10.0,14.0,90,0.00,,,0.02,,2013-07-17 17:11:00,
2013-07-17 13:22:00,79.0,75.0,26.41,NE,52,11.0,15.0,89,0.00,,,0.02,,2013-07-17 17:22:00,
2013-07-17 13:32:00,79.0,75.0,26.41,NE,51,10.0,16.0,89,0.00,,,0.02,,2013-07-17 17:32:00,
2013-07-17 13:43:00,79.0,75.0,26.41,ENE,58,10.0,14.0,89,0.00,,,0.02,,2013-07-17 17:43:00,
2013-07-17 13:52:00,79.0,75.0,26.41,NE,48,8.0,12.0,89,0.00,,,0.02,,2013-07-17 17:52:00,
2013-07-17 14:22:00,79.0,75.0,26.41,NE,42,8.0,11.0,87,0.00,,,0.01,,2013-07-17 18:22:00,
2013-07-17 14:32:00,80.0,76.0,26.41,NE,42,6.0,11.0,87,0.00,,,0.01,,2013-07-17 18:32:00,
2013-07-17 14:43:00,80.0,76.0,26.41,NE,42,5.0,9.0,87,0.00,,,0.01,,2013-07-17 18:43:00,
2013-07-17 14:52:00,81.0,76.0,26.41,NE,42,5.0,7.0,86,0.00,,,0.01,,2013-07-17 18:52:00,
2013-07-17 15:01:00,81.0,76.0,26.41,NE,42,7.0,10.0,84,0.00,,,0.01,,2013-07-17 19:01:00,
2013-07-17 15:11:00,80.0,74.0,26.41,NE,42,5.0,10.0,83,0.00,,,0.01,,2013-07-17 19:11:00,
2013-07-17 15:22:00,81.0,75.0,26.41,NE,42,7.0,11.0,83,0.00,,,0.01,,2013-07-17 19:22:00,
2013-07-17 15:32:00,81.0,75.0,26.41,NE,42,7.0,11.0,83,0.00,,,0.01,,2013-07-17 19:32:00,
2013-07-17 15:53:00,80.0,74.0,26.41,NE,42,3.0,12.0,82,0.00,,,0.01,,2013-07-17 19:53:00,
2013-07-17 16:02:00,80.0,74.0,26.41,NE,40,10.0,12.0,82,0.00,,,0.01,,2013-07-17 20:02:00,
2013-07-17 16:52:00,81.0,74.0,26.41,NNE,33,7.0,14.0,79,0.00,,,0.01,,2013-07-17 20:52:00,
2013-07-17 17:02:00,81.0,74.0,26.41,NNE,28,9.0,14.0,79,0.00,,,0.01,,2013-07-17 21:02:00,
2013-07-17 17:42:00,82.0,74.0,26.41,NE,38,13.0,16.0,77,0.00,,,0.01,,2013-07-17 21:42:00,
2013-07-17 17:52:00,82.0,74.0,26.41,NE,44,0.0,17.0,78,0.00,,,0.01,,2013-07-17 21:52:00,
2013-07-17 18:11:00,82.0,75.0,26.41,NE,48,15.0,20.0,80,0.00,,,0.01,,2013-07-17 22:11:00,
2013-07-17 18:22:00,82.0,75.0,26.41,ENE,61,8.0,18.0,80,0.00,,,0.01,,2013-07-17 22:22:00,
2013-07-17 18:32:00,82.0,75.0,26.41,NE,52,4.0,17.0,80,0.00,,,0.01,,2013-07-17 22:32:00,
2013-07-17 18:43:00,81.0,75.0,26.41,ENE,61,14.0,17.0,81,0.00,,,0.01,,2013-07-17 22:43:00,
2013-07-17 18:53:00,81.0,75.0,26.41,NE,54,14.0,17.0,81,0.00,,,0.01,,2013-07-17 22:53:00,
2013-07-17 19:22:00,81.0,75.0,26.41,NE,46,12.0,16.0,81,0.01,,,0.02,,2013-07-17 23:22:00,
2013-07-17 19:32:00,81.0,74.0,26.41,NE,49,11.0,15.0,80,0.01,,,0.02,,2013-07-17 23:32:00,
2013-07-17 19:43:00,81.0,74.0,26.41,NE,50,12.0,15.0,80,0.01,,,0.02,,2013-07-17 23:43:00,
2013-07-17 19:52:00,80.0,73.0,26.41,ENE,63,13.0,15.0,80,0.01,,,0.02,,2013-07-17 23:52:00,
2013-07-17 20:01:00,80.0,74.0,26.41,NE,48,11.0,14.0,81,0.01,,,0.02,,2013-07-18 00:01:00,
2013-07-17 20:11:00,80.0,74.0,26.41,NE,48,10.0,14.0,81,0.01,,,0.02,,2013-07-18 00:11:00,
2013-07-17 20:22:00,80.0,74.0,26.41,NE,48,10.0,15.0,81,0.00,,,0.02,,2013-07-18 00:22:00,
2013-07-17 20:33:00,79.0,73.0,26.41,NE,54,10.0,14.0,81,0.00,,,0.02,,2013-07-18 00:33:00,
2013-07-17 20:43:00,80.0,74.0,26.41,NE,56,15.0,18.0,81,0.00,,,0.02,,2013-07-18 00:43:00,
2013-07-17 20:52:00,80.0,74.0,26.41,NE,39,11.0,18.0,83,0.00,,,0.02,,2013-07-18 00:52:00,
2013-07-17 21:01:00,80.0,75.0,26.41,NE,42,12.0,16.0,84,0.00,,,0.02,,2013-07-18 01:01:00,
2013-07-17 21:11:00,80.0,75.0,26.41,NE,48,19.0,22.0,86,0.00,,,0.02,,2013-07-18 01:11:00,
2013-07-17 21:32:00,79.0,74.0,26.41,East,80,18.0,23.0,86,0.00,,,0.02,,2013-07-18 01:32:00,
2013-07-17 21:43:00,79.0,74.0,26.41,East,79,21.0,23.0,86,0.00,,,0.02,,2013-07-18 01:43:00,
2013-07-17 21:53:00,79.0,74.0,26.41,East,86,18.0,23.0,86,0.00,,,0.02,,2013-07-18 01:53:00,
2013-07-17 22:11:00,79.0,74.0,26.41,ENE,77,16.0,21.0,85,0.00,,,0.02,,2013-07-18 02:11:00,
2013-07-17 22:22:00,79.0,74.0,26.41,East,81,16.0,20.0,85,0.00,,,0.02,,2013-07-18 02:22:00,
2013-07-17 22:32:00,79.0,74.0,26.41,East,83,17.0,20.0,86,0.00,,,0.02,,2013-07-18 02:32:00,
2013-07-17 22:43:00,79.0,74.0,26.41,East,85,18.0,20.0,86,0.00,,,0.02,,2013-07-18 02:43:00,
2013-07-17 22:52:00,79.0,74.0,26.41,East,86,14.0,18.0,86,0.00,,,0.02,,2013-07-18 02:52:00,
2013-07-17 23:01:00,79.0,75.0,26.41,ENE,70,12.0,16.0,87,0.00,,,0.02,,2013-07-18 03:01:00,
2013-07-17 23:52:00,79.0,75.0,26.41,ENE,63,14.0,15.0,88,0.00,,,0.02,,2013-07-18 03:52:00,